Regional Weather Roundup
Issued by NWS

Home | Current Version | Previous Version | Text Only | Print | Product List | Glossary On
Versions: 1 2 3 4 5 6 7 8 9 10 11 12 13 14 15 16 17 18 19 20 21 22 23 24 25 26 27
000
ASUS46 KSEW 010710
RWRWA

WASHINGTON REGIONAL WEATHER ROUNDUP
NATIONAL WEATHER SERVICE SEATTLE WA
1200 AM PDT SAT NOV 01 2014

NOTE:"FAIR" INDICATES FEW OR NO CLOUDS BELOW 12,000 FEET WITH NO
SIGNIFICANT WEATHER AND/OR OBSTRUCTIONS TO VISIBILITY.

WAZ505-507>509-010800-
SEATTLE, TACOMA, EVERETT, AND VICINITY

CITY           SKY/WX    TMP DP  RH WIND       PRES   REMARKS
EVERETT        MOCLDY    46  45  96 CALM      29.87S FOG
BOEING FIELD   CLOUDY    52  47  83 CALM      29.86F
RENTON         CLOUDY    49  49 100 SE3       29.86F
SEATAC AIRPORT CLOUDY    50  48  93 E5        29.87F
JBLM-MCCHORD   CLOUDY    43  43 100 S5        29.87S FOG
PUYALLUP       NOT AVBL
JBLM-FT LEWIS  CLOUDY    41  41 100 SE7       29.86S FOG
TACOMA NARROWS FOG       47  46  97 NW3       29.87R VSB 1
$$

WAZ001-503-506-510-514-515-010800-
NORTH INTERIOR

CITY           SKY/WX    TMP DP  RH WIND       PRES   REMARKS
BELLINGHAM     FOG       43  39  87 CALM      29.87F VSB 1/2
FRIDAY HARBOR  CLEAR     44  42  93 CALM      29.88F
EASTSOUND      CLEAR     46  45  93 CALM      29.86F
PORT ANGELES   CLEAR     44  41  89 SW7       29.87F
NAS WHIDBEY    FOG       47  44  90 E6        29.88F VSB 1/4
BURLINGTON     CLOUDY   N/A N/A N/A NE3       29.88F VSB 1/2
$$

WAZ020-022-039-040-504-511-512-010800-
SOUTHWEST INTERIOR

CITY           SKY/WX    TMP DP  RH WIND       PRES   REMARKS
SHELTON        PTCLDY    36  35  96 CALM      29.85S FOG
OLYMPIA        FOG       42  41  96 CALM      29.87S VSB 1/4
CHEHALIS       FOG       45  45 100 CALM      29.86F VSB 1/2
KELSO          CLOUDY   N/A N/A N/A CALM      29.90S
VANCOUVER      CLOUDY    46  44  93 CALM      29.86S
SCAPPOOSE, OR  FOG       44  43  96 CALM      29.86R VSB 1/4
PORTLAND, OR   CLOUDY    47  47 100 NW5       29.86S
$$

WAZ021-516-517-010800-
WASHINGTON COAST

CITY           SKY/WX    TMP DP  RH WIND       PRES   REMARKS
FORKS          CLEAR     44  43  96 E6        29.86F
HOQUIAM        FOG       45  45 100 NE5       29.86S VSB 1/2
ASTORIA, OR    CLEAR     42  40  92 E5        29.86R
$$

WAZ019-023-024-040-518-519-010800-
CASCADE MOUNTAINS AND COLUMBIA GORGE

CITY           SKY/WX    TMP DP  RH WIND       PRES   REMARKS
STAMPEDE PASS  NOT AVBL
TROUTDALE, OR  CLOUDY    47  45  93 CALM      29.85S
THE DALLES, OR MOCLDY    46  42  86 W5        29.81F
$$

WAZ026-027-041>044-520-521-010800-
EAST SLOPES

CITY           SKY/WX    TMP DP  RH WIND       PRES   REMARKS
OMAK           CLOUDY    48  46  93 W3        29.78S
WENATCHEE      CLOUDY    49  39  68 NW6       29.79S
ELLENSBURG     CLOUDY    46  38  73 NW12      29.79S
YAKIMA         CLOUDY    43  40  89 W3        29.80S
$$

WAZ028-034-035-010800-
COLUMBIA BASIN

CITY           SKY/WX    TMP DP  RH WIND       PRES   REMARKS
EPHRATA        CLOUDY    48  47  96 N3        29.77S FOG
MOSES LAKE     CLOUDY    46  44  93 CALM      29.78F
PASCO          CLOUDY    51  46  83 CALM      29.80F
HERMISTON, OR  CLOUDY    52  43  71 SW5       29.79F
$$

WAZ036>038-010800-
NORTHEAST WASHINGTON

CITY           SKY/WX    TMP DP  RH WIND       PRES   REMARKS
SPOKANE GEIGER CLOUDY    47  44  90 S7        29.78F
SPOKANE FELTS  MOCLDY    48  44  86 CALM      29.79F
FAIRCHILD AFB  CLOUDY    46  45  99 S7        29.78F
COEURDALENE,ID MOCLDY    46  45  93 S5        29.77F
DEER PARK      CLOUDY    48  47  96 CALM      29.79S FOG
$$

WAZ029>033-010800-
SOUTHEAST WASHINGTON

CITY           SKY/WX    TMP DP  RH WIND       PRES   REMARKS
PULLMAN        CLOUDY    46  42  86 N7        29.79F
LEWISTON, ID   CLOUDY    52  42  69 W5        29.78S
WALLA WALLA    RAIN      49  46  90 SW7       29.81R FOG
PENDLETON, OR  LGT RAIN  47  44  90 E6        29.79F
$$



USA.gov is the U.S. government's official web portal to all federal, state and local government web resources and services.